Location: Biharia
(46.4333°N, 22.8000°E)
Time: 23:33:55
(UTC+00:00)

FENGYUN 1C DEB - Pass Details

Date: 17 August 2022
Orbit: 796 x 915 km, 98.9° (Epoch: 28 September)

Event Time Altitude Azimuth Distance (km) Brightness Sun altitude
Rises 21:56:39 0° 30° (NNE) 3,409 ? -29.8°
Reaches altitude 10° 22:00:02 10° 51° (NE) 2,444 ? -29.9°
Enters shadow 22:02:23 16° 77° (ENE) 2,060 ? -30.0°
